"Timestamp","TZ","WindDir_Mean (deg)","WindSpd_Mean (km/h)","WindSpd_Min (km/h)","WindSpd_Max (km/h)","Temp_Mean (deg)","RH_Mean (%)","MSLP_Mean (hPa)","Rain_Acc (mm)","Rain_Intensity (mm/h)","Hail_Acc (hits/cm2)","Hail_Intensity (hits/cm2hr)","Solar_Mean (W/m2)"
2020/05/19 00:00:00.000,n,182,3.6,3.24,3.96,17,69.2,1028.02,0,0,0,0,0.034828
2020/05/19 00:01:00.000,n,199,5.4,4.68,6.12,17,69.3,1028.02,0,0,0,0,0.033951
2020/05/19 00:02:00.000,n,156,4.68,4.32,5.04,17,69.4,1028.02,0,0,0,0,0.032196
2020/05/19 00:03:00.000,n,174,2.52,2.16,3.6,17,69.4,1028.02,0,0,0,0,0.033951
2020/05/19 00:04:00.004,n,158,7.56,5.04,8.64,17,69.6,1028.02,0,0,0,0,0.033951
2020/05/19 00:05:00.001,n,176,5.4,4.68,7.56,17,69.6,1028.02,0,0,0,0,0.031319
2020/05/19 00:06:00.000,n,190,11.88,10.8,12.96,17,69.7,1028.02,0,0,0,0,0.032196
2020/05/19 00:07:00.010,n,185,9.36,8.28,11.88,17,69.7,1028.02,0,0,0,0,0.029602
2020/05/19 00:08:00.008,n,201,8.64,7.2,10.440002,17,69.7,1028.02,0,0,0,0,0.032196
2020/05/19 00:09:00.005,n,187,3.96,2.88,5.4,17,69.8,1028.02,0,0,0,0,0.031319
2020/05/19 00:10:00.002,n,230,2.88,1.44,3.6,17,69.8,1028.02,0,0,0,0,0.033073
2020/05/19 00:11:00.000,n,172,9.72,9.36,10.8,17,70,1028.02,0,0,0,0,0.033073
2020/05/19 00:12:00.000,n,223,2.16,1.44,2.52,17,70,1027.92,0,0,0,0,0.032196
2020/05/19 00:13:00.000,n,131,2.52,0.72,3.24,17,70,1027.92,0,0,0,0,0.030479
2020/05/19 00:14:00.007,n,171,1.08,0.72,1.44,17,70,1027.92,0,0,0,0,0.033073
2020/05/19 00:15:00.006,n,227,2.88,2.52,3.24,17,70,1027.92,0,0,0,0,0.029602
2020/05/19 00:16:00.002,n,260,2.88,2.16,3.24,17,70.2,1027.92,0,0,0,0,0.031319
2020/05/19 00:17:00.000,n,260,2.16,1.8,2.52,17,70.2,1027.92,0,0,0,0,0.026093
2020/05/19 00:18:00.012,n,268,1.8,1.44,1.8,17,70.2,1027.92,0,0,0,0,0.030479
2020/05/19 00:19:00.000,n,283,0.36,0,0.72,17,70.2,1027.92,0,0,0,0,0.027847
2020/05/19 00:20:00.000,n,331,1.8,1.44,2.16,17,70.4,1027.92,0,0,0,0,0.032196
2020/05/19 00:21:00.000,n,179,1.08,0.72,1.44,17,70.2,1027.92,0,0,0,0,0.028725
2020/05/19 00:22:00.004,n,7,2.52,2.16,3.24,17,70.4,1027.82,0,0,0,0,0.028725
2020/05/19 00:23:00.000,n,170,0.36,0,0.36,17,70.4,1027.82,0,0,0,0,0.028725
2020/05/19 00:24:00.000,n,136,1.08,1.08,1.44,17,70.2,1027.82,0,0,0,0,0.029602
2020/05/19 00:25:00.010,n,197,0.72,0.36,1.08,16.9,70.3,1027.82,0,0,0,0,0.028725
2020/05/19 00:26:00.009,n,116,0.36,0,0.72,16.9,70.6,1027.82,0,0,0,0,0.031319
2020/05/19 00:27:00.006,n,182,1.08,0.72,1.44,16.9,70.5,1027.82,0,0,0,0,0.028725
2020/05/19 00:28:00.000,n,134,1.8,1.44,2.52,16.9,70.6,1027.82,0,0,0,0,0.027847
2020/05/19 00:29:00.000,n,161,1.44,1.08,1.44,16.9,70.6,1027.82,0,0,0,0,0.028725
2020/05/19 00:30:00.000,n,346,1.08,0.36,1.8,16.9,70.7,1027.82,0,0,0,0,0.028725
2020/05/19 00:31:00.000,n,257,1.44,1.44,1.8,16.9,70.7,1027.82,0,0,0,0,0.026093
2020/05/19 00:32:00.007,n,135,1.44,1.08,1.8,16.8,70.7,1027.82,0,0,0,0,0.030479
2020/05/19 00:33:00.005,n,216,1.08,0.72,1.44,16.8,70.7,1027.72,0,0,0,0,0.030479
2020/05/19 00:34:00.001,n,255,1.08,0.72,1.8,16.8,70.8,1027.72,0,0,0,0,0.028725
2020/05/19 00:35:00.000,n,229,2.52,2.16,3.24,16.8,71,1027.72,0,0,0,0,0.031319
2020/05/19 00:36:00.011,n,227,2.88,2.52,2.88,16.8,70.8,1027.72,0,0,0,0,0.029602
2020/05/19 00:37:00.000,n,271,3.24,2.88,3.96,16.8,71.2,1027.72,0,0,0,0,0.029602
2020/05/19 00:38:00.000,n,118,0.36,0,0.72,16.8,71.3,1027.72,0,0,0,0,0.030479
2020/05/19 00:39:00.003,n,120,1.08,0.72,1.44,16.8,71.1,1027.72,0,0,0,0,0.028725
2020/05/19 00:40:00.000,n,237,0.72,0.36,1.08,16.8,71,1027.72,0,0,0,0,0.028725
2020/05/19 00:41:00.000,n,217,0.36,0,0.72,16.8,71,1027.72,0,0,0,0,0.033951
2020/05/19 00:42:00.000,n,249,2.88,2.88,2.88,16.8,71,1027.72,0,0,0,0,0.031319
2020/05/19 00:43:00.008,n,247,2.16,1.08,2.16,16.8,71.5,1027.72,0,0,0,0,0.033073
2020/05/19 00:44:00.005,n,271,2.16,1.8,2.88,16.8,71.8,1027.72,0,0,0,0,0.030479
2020/05/19 00:45:00.002,n,225,1.8,1.44,2.16,16.8,71.4,1027.72,0,0,0,0,0.032196
2020/05/19 00:46:00.000,n,198,0.72,0.72,1.08,16.8,71.3,1027.72,0,0,0,0,0.030479
2020/05/19 00:47:00.000,n,259,2.52,1.44,2.88,16.700002,71.3,1027.72,0,0,0,0,0.030479
2020/05/19 00:48:00.000,n,277,2.16,1.44,2.52,16.700002,71.6,1027.72,0,0,0,0,0.029602
2020/05/19 00:49:00.006,n,269,1.08,0.36,1.08,16.700002,71.8,1027.62,0,0,0,0,0.026093
2020/05/19 00:50:00.004,n,259,2.52,2.16,2.88,16.700002,71.8,1027.62,0,0,0,0,0.029602
2020/05/19 00:51:00.000,n,305,1.44,1.08,1.8,16.700002,71.8,1027.62,0,0,0,0,0.031319
2020/05/19 00:52:00.000,n,249,2.16,1.8,2.52,16.700002,72.2,1027.72,0,0,0,0,0.029602
2020/05/19 00:53:00.010,n,186,1.44,1.08,1.44,16.700002,71.7,1027.62,0,0,0,0,0.031319
2020/05/19 00:54:00.007,n,190,0.72,0.72,1.08,16.700002,71.6,1027.62,0,0,0,0,0.029602
2020/05/19 00:55:00.000,n,233,1.8,1.44,2.16,16.700002,71.6,1027.62,0,0,0,0,0.028725
2020/05/19 00:56:00.000,n,287,2.88,1.8,3.96,16.700002,71.8,1027.62,0,0,0,0,0.032196
2020/05/19 00:57:00.000,n,171,0.36,0,0.72,16.700002,72.1,1027.62,0,0,0,0,0.030479
2020/05/19 00:58:00.000,n,245,1.44,1.08,1.8,16.700002,72.2,1027.62,0,0,0,0,0.034828
2020/05/19 00:59:00.000,n,30,1.8,1.08,2.52,16.700002,71.8,1027.62,0,0,0,0,0.033951
2020/05/19 01:00:00.006,n,256,0.36,0.36,1.08,16.700002,71.5,1027.52,0,0,0,0,0.030479
2020/05/19 01:01:00.003,n,246,2.52,2.16,2.88,16.6,71.5,1027.52,0,0,0,0,0.029602
2020/05/19 01:02:00.000,n,260,3.6,3.24,3.96,16.6,71.4,1027.52,0,0,0,0,0.028725
2020/05/19 01:03:00.015,n,261,2.52,2.52,2.88,16.6,71.7,1027.52,0,0,0,0,0.033073
2020/05/19 01:04:00.000,n,276,2.16,1.8,2.88,16.6,71.9,1027.52,0,0,0,0,0.034828
2020/05/19 01:05:00.000,n,250,1.44,0.72,2.16,16.6,71.8,1027.52,0,0,0,0,0.027847
2020/05/19 01:06:00.000,n,278,2.88,2.52,3.96,16.6,72.2,1027.52,0,0,0,0,0.031319
2020/05/19 01:07:00.003,n,286,1.8,1.08,2.52,16.700002,73.1,1027.42,0,0,0,0,0.032196
2020/05/19 01:08:00.001,n,266,2.88,2.52,3.24,16.700002,72.5,1027.42,0,0,0,0,0.030479
2020/05/19 01:09:00.000,n,234,2.88,2.52,3.24,16.700002,72,1027.42,0,0,0,0,0.028725
2020/05/19 01:10:00.010,n,256,1.8,1.44,2.16,16.6,71.7,1027.42,0,0,0,0,0.02697
2020/05/19 01:11:00.008,n,258,3.24,2.52,3.6,16.6,72.5,1027.42,0,0,0,0,0.02697
2020/05/19 01:12:00.005,n,269,3.24,2.52,3.96,16.6,71.8,1027.42,0,0,0,0,0.028725
2020/05/19 01:13:00.000,n,223,2.52,2.52,2.88,16.5,71.7,1027.42,0,0,0,0,0.029602
2020/05/19 01:14:00.000,n,259,4.32,3.6,4.68,16.5,71.7,1027.42,0,0,0,0,0.031319
2020/05/19 01:15:00.000,n,257,2.88,2.16,3.24,16.5,71.8,1027.42,0,0,0,0,0.030479
2020/05/19 01:16:00.000,n,257,2.52,2.52,2.88,16.5,71.9,1027.42,0,0,0,0,0.026093
2020/05/19 01:17:00.006,n,259,2.52,2.16,2.88,16.4,71.9,1027.32,0,0,0,0,0.024376
2020/05/19 01:18:00.004,n,229,1.8,1.44,2.16,16.4,72.1,1027.32,0,0,0,0,0.028725
2020/05/19 01:19:00.000,n,210,1.8,1.44,1.8,16.4,72.4,1027.32,0,0,0,0,0.022621
2020/05/19 01:20:00.013,n,327,2.52,2.16,2.88,16.5,72.3,1027.32,0,0,0,0,0.029602
2020/05/19 01:21:00.010,n,282,3.6,3.24,3.6,16.4,72.2,1027.42,0,0,0,0,0.027847
2020/05/19 01:22:00.000,n,119,0.36,0,1.08,16.4,72.1,1027.42,0,0,0,0,0.026093
2020/05/19 01:23:00.000,n,155,1.44,1.44,1.8,16.4,72.3,1027.42,0,0,0,0,0.028725
2020/05/19 01:24:00.001,n,121,1.44,1.08,1.8,16.4,72.5,1027.32,0,0,0,0,0.02697
2020/05/19 01:25:00.000,n,277,2.52,1.8,3.24,16.4,72.6,1027.42,0,0,0,0,0.02697
2020/05/19 01:26:00.000,n,163,1.08,1.08,1.44,16.4,72.6,1027.42,0,0,0,0,0.024376
2020/05/19 01:27:00.009,n,349,2.52,1.8,3.6,16.3,72.8,1027.42,0,0,0,0,0.021744
2020/05/19 01:28:00.006,n,129,1.44,0.72,1.8,16.3,72.8,1027.42,0,0,0,0,0.032196
2020/05/19 01:29:00.000,n,144,2.16,0.36,2.52,16.3,72.7,1027.32,0,0,0,0,0.032196
2020/05/19 01:30:00.012,n,239,3.24,2.52,3.24,16.3,72.7,1027.32,0,0,0,0,0.035706
2020/05/19 01:31:00.000,n,202,1.8,1.08,2.16,16.3,72.8,1027.32,0,0,0,0,0.030479
2020/05/19 01:32:00.000,n,142,2.16,1.08,2.88,16.3,72.8,1027.32,0,0,0,0,0.035706
2020/05/19 01:33:00.003,n,249,3.24,2.88,3.6,16.3,72.9,1027.32,0,0,0,0,0.031319
2020/05/19 01:34:00.000,n,260,1.8,1.44,2.16,16.3,72.9,1027.32,0,0,0,0,0.029602
2020/05/19 01:35:00.000,n,188,1.8,1.44,2.16,16.3,73,1027.32,0,0,0,0,0.027847
2020/05/19 01:36:00.010,n,265,2.52,2.16,2.88,16.3,73.4,1027.32,0,0,0,0,0.029602
2020/05/19 01:37:00.008,n,138,1.08,0.36,1.44,16.3,73.3,1027.32,0,0,0,0,0.032196
2020/05/19 01:38:00.005,n,256,1.8,1.08,2.88,16.3,73.4,1027.32,0,0,0,0,0.028725
2020/05/19 01:39:00.001,n,256,2.52,2.16,2.88,16.3,73.6,1027.32,0,0,0,0,0.028725
2020/05/19 01:40:00.000,n,292,2.16,0.72,2.52,16.3,73.4,1027.22,0,0,0,0,0.027847
2020/05/19 01:41:00.000,n,219,3.24,2.52,3.6,16.3,73.4,1027.32,0,0,0,0,0.027847
2020/05/19 01:42:00.000,n,290,1.44,0.72,1.8,16.3,73.3,1027.32,0,0,0,0,0.029602
2020/05/19 01:43:00.005,n,244,2.88,2.52,3.24,16.200002,73.4,1027.32,0,0,0,0,0.02697
2020/05/19 01:44:00.003,n,320,3.24,1.8,5.4,16.200002,73.5,1027.32,0,0,0,0,0.023537
2020/05/19 01:45:00.000,n,347,0.36,0.36,0.72,16.200002,73.4,1027.32,0,0,0,0,0.028725
2020/05/19 01:46:00.000,n,234,1.44,1.08,1.8,16.200002,73.3,1027.22,0,0,0,0,0.028725
2020/05/19 01:47:00.011,n,137,1.08,0.72,1.44,16.200002,73.5,1027.22,0,0,0,0,0.024376
2020/05/19 01:48:00.008,n,138,1.08,0.36,1.8,16.200002,73.6,1027.22,0,0,0,0,0.026131
2020/05/19 01:49:00.000,n,208,1.8,1.8,2.16,16.200002,73.9,1027.22,0,0,0,0,0.026131
2020/05/19 01:50:00.002,n,142,0.72,0.36,1.08,16.200002,73.7,1027.22,0,0,0,0,0.025253
2020/05/19 01:51:00.000,n,174,0.36,0.36,0.36,16.200002,74.1,1027.22,0,0,0,0,0.026131
2020/05/19 01:52:00.000,n,257,2.16,2.16,2.52,16.200002,73.8,1027.22,0,0,0,0,0.021744
2020/05/19 01:53:00.000,n,93,2.52,1.44,3.24,16.200002,73.7,1027.22,0,0,0,0,0.024376
2020/05/19 01:54:00.008,n,240,0.72,0.36,1.08,16.200002,73.6,1027.22,0,0,0,0,0.020027
2020/05/19 01:55:00.005,n,181,1.8,1.44,2.16,16.200002,73.6,1027.22,0,0,0,0,0.024376
2020/05/19 01:56:00.002,n,201,1.44,0.72,1.8,16.1,73.7,1027.22,0,0,0,0,0.01915
2020/05/19 01:57:00.015,n,265,1.44,1.08,1.8,16.1,73.7,1027.22,0,0,0,0,0.020905
2020/05/19 01:58:00.000,n,246,2.16,1.8,2.52,16.1,73.8,1027.12,0,0,0,0,0.016556
2020/05/19 01:59:00.000,n,240,1.08,0.72,1.44,16.1,74,1027.12,0,0,0,0,0.015678
2020/05/19 02:00:00.000,n,217,2.16,1.44,2.52,16.1,73.9,1027.12,0,0,0,0,0.01915
2020/05/19 02:01:00.004,n,164,3.6,2.52,3.96,16.1,73.9,1027.12,0,0,0,0,0.031395
2020/05/19 02:02:00.000,n,214,3.24,2.88,4.32,16.1,73.8,1027.12,0,0,0,0,0.033112
2020/05/19 02:03:00.000,n,190,1.08,0.72,1.44,16.1,73.8,1027.12,0,0,0,0,0.03746
2020/05/19 02:04:00.009,n,150,0.36,0,0.72,16.1,73.7,1027.12,0,0,0,0,0.03746
2020/05/19 02:05:00.006,n,270,1.44,1.08,2.16,16.1,74.3,1027.12,0,0,0,0,0.032272
2020/05/19 02:06:00.004,n,215,0.72,0.36,1.08,16.1,74.1,1027.12,0,0,0,0,0.038338
2020/05/19 02:07:00.001,n,166,2.88,1.08,3.6,16.1,74,1027.12,0,0,0,0,0.032272
2020/05/19 02:08:00.000,n,287,2.52,1.8,3.96,16.1,74.2,1027.12,0,0,0,0,0.033989
2020/05/19 02:09:00.000,n,213,2.88,1.8,3.6,16.1,74.1,1027.12,0,0,0,0,0.030479
2020/05/19 02:10:00.000,n,248,2.16,1.44,2.88,16,74.1,1027.02,0,0,0,0,0.025291
2020/05/19 02:11:00.007,n,271,2.16,1.08,2.52,16,74.4,1027.02,0,0,0,0,0.028763
2020/05/19 02:12:00.004,n,224,1.08,0.72,2.16,16.1,74.5,1027.02,0,0,0,0,0.030479
2020/05/19 02:13:00.002,n,271,3.6,3.6,4.32,16.1,74.5,1027.02,0,0,0,0,0.034866
2020/05/19 02:14:00.000,n,201,1.8,1.8,2.16,16,74.4,1027.02,0,0,0,0,0.030479
2020/05/19 02:15:00.012,n,129,0.36,0,0.72,16,74.3,1027.02,0,0,0,0,0.033989
2020/05/19 02:16:00.000,n,227,1.08,0.72,1.44,16,74.3,1026.92,0,0,0,0,0.033112
2020/05/19 02:17:00.000,n,90,1.08,0,1.8,16,74.4,1026.92,0,0,0,0,0.027924
2020/05/19 02:18:00.004,n,269,2.88,2.52,3.24,15.9,74.4,1026.92,0,0,0,0,0.028763
2020/05/19 02:19:00.001,n,269,0.72,0.36,1.44,15.9,74.4,1026.92,0,0,0,0,0.027924
2020/05/19 02:20:00.000,n,265,1.44,0.72,1.8,15.9,74.4,1026.92,0,0,0,0,0.027924
2020/05/19 02:21:00.000,n,266,1.8,0.72,2.52,15.9,74.4,1026.92,0,0,0,0,0.027046
2020/05/19 02:22:00.010,n,248,1.08,0.72,1.08,15.9,74.8,1026.82,0,0,0,0,0.027046
2020/05/19 02:23:00.006,n,150,3.6,2.52,4.68,15.9,74.8,1026.82,0,0,0,0,0.024414
2020/05/19 02:24:00.004,n,239,2.16,1.44,2.52,15.9,74.6,1026.82,0,0,0,0,0.020065
2020/05/19 02:25:00.000,n,161,2.16,1.08,2.88,15.8,74.6,1026.82,0,0,0,0,0.032234
2020/05/19 02:26:00.000,n,255,2.16,1.8,2.52,15.8,74.5,1026.82,0,0,0,0,0.031357
2020/05/19 02:27:00.000,n,143,0.36,0,0.72,15.8,75.1,1026.82,0,0,0,0,0.033951
2020/05/19 02:28:00.007,n,168,3.6,2.16,4.32,15.9,74.8,1026.82,0,0,0,0,0.033951
2020/05/19 02:29:00.004,n,197,1.08,0.72,1.44,15.9,74.7,1026.82,0,0,0,0,0.031357
2020/05/19 02:30:00.001,n,246,0.72,0.36,0.72,15.8,74.6,1026.82,0,0,0,0,0.032234
2020/05/19 02:31:00.000,n,270,3.6,2.88,4.32,15.8,74.8,1026.82,0,0,0,0,0.027885
2020/05/19 02:32:00.010,n,219,1.8,1.44,2.52,15.8,74.9,1026.92,0,0,0,0,0.031357
2020/05/19 02:33:00.008,n,212,3.6,3.24,3.96,15.8,74.8,1026.92,0,0,0,0,0.025253
2020/05/19 02:34:00.000,n,212,1.08,0.36,1.44,15.8,74.9,1026.82,0,0,0,0,0.024376
2020/05/19 02:35:00.001,n,228,0.72,0,1.44,15.8,75,1026.82,0,0,0,0,0.024376
2020/05/19 02:36:00.000,n,204,0.72,0.72,1.44,15.8,74.9,1026.82,0,0,0,0,0.029602
2020/05/19 02:37:00.000,n,275,3.6,3.24,4.32,15.8,74.9,1026.82,0,0,0,0,0.024376
2020/05/19 02:38:00.008,n,194,2.16,1.8,2.52,15.8,74.9,1026.82,0,0,0,0,0.026093
2020/05/19 02:39:00.005,n,263,2.88,1.8,3.6,15.8,74.9,1026.82,0,0,0,0,0.022659
2020/05/19 02:40:00.002,n,264,1.44,1.44,1.8,15.7,74.9,1026.82,0,0,0,0,0.027008
2020/05/19 02:41:00.015,n,278,2.88,2.52,2.88,15.7,75.3,1026.72,0,0,0,0,0.025253
2020/05/19 02:42:00.012,n,257,5.4,4.68,5.76,15.7,75.1,1026.72,0,0,0,0,0.020905
2020/05/19 02:43:00.000,n,241,2.16,1.44,2.88,15.7,75.2,1026.72,0,0,0,0,0.026093
2020/05/19 02:44:00.000,n,265,1.8,1.44,2.16,15.7,75.2,1026.72,0,0,0,0,0.024376
2020/05/19 02:45:00.004,n,219,3.24,2.52,3.96,15.7,75.2,1026.72,0,0,0,0,0.026093
2020/05/19 02:46:00.001,n,182,3.6,2.52,3.96,15.7,75.3,1026.62,0,0,0,0,0.027008
2020/05/19 02:47:00.000,n,225,2.16,1.44,2.52,15.7,75.2,1026.62,0,0,0,0,0.021744
2020/05/19 02:48:00.000,n,261,1.08,0.72,2.16,15.7,75.6,1026.62,0,0,0,0,0.020027
2020/05/19 02:49:00.010,n,205,1.44,0.72,2.16,15.7,75.2,1026.62,0,0,0,0,0.026093
2020/05/19 02:50:00.007,n,269,1.44,0.36,2.52,15.7,75.3,1026.62,0,0,0,0,0.022659
2020/05/19 02:51:00.004,n,201,0.72,0.36,1.8,15.7,75.3,1026.62,0,0,0,0,0.021744
2020/05/19 02:52:00.001,n,327,4.32,2.88,5.4,15.7,75.6,1026.62,0,0,0,0,0.024376
2020/05/19 02:53:00.000,n,209,0.36,0,0.72,15.7,75.5,1026.62,0,0,0,0,0.027885
2020/05/19 02:54:00.000,n,93,1.08,0.72,1.8,15.7,75.3,1026.62,0,0,0,0,0.036583
2020/05/19 02:55:00.000,n,234,1.44,0.72,1.8,15.7,75.3,1026.62,0,0,0,0,0.036583
2020/05/19 02:56:00.004,n,192,2.52,1.44,2.88,15.6,75.4,1026.62,0,0,0,0,0.034828
2020/05/19 02:57:00.002,n,256,2.88,2.52,3.24,15.6,75.2,1026.62,0,0,0,0,0.031357
2020/05/19 02:58:00.000,n,248,2.16,1.8,2.52,15.6,75.5,1026.62,0,0,0,0,0.034828
2020/05/19 02:59:00.013,n,305,2.52,2.16,3.24,15.6,75.7,1026.72,0,0,0,0,0.032234
2020/05/19 03:00:00.011,n,62,1.08,0.36,2.16,15.6,75.7,1026.72,0,0,0,0,0.032234
2020/05/19 03:01:00.000,n,275,2.88,2.52,3.24,15.6,75.8,1026.72,0,0,0,0,0.034828
2020/05/19 03:02:00.000,n,249,3.6,3.6,3.96,15.6,75.7,1026.72,0,0,0,0,0.028725
2020/05/19 03:03:00.003,n,251,2.52,2.16,2.52,15.6,75.8,1026.62,0,0,0,0,0.033951
2020/05/19 03:04:00.000,n,221,2.16,1.44,2.88,15.6,75.9,1026.62,0,0,0,0,0.031357
2020/05/19 03:05:00.000,n,259,3.24,2.88,3.6,15.5,76.2,1026.62,0,0,0,0,0.031357
2020/05/19 03:06:00.010,n,252,3.24,2.88,3.6,15.5,76.2,1026.62,0,0,0,0,0.033073
2020/05/19 03:07:00.009,n,219,1.44,0.72,2.16,15.5,76,1026.62,0,0,0,0,0.027885
2020/05/19 03:08:00.005,n,218,2.52,2.16,2.88,15.5,76.2,1026.62,0,0,0,0,0.027008
2020/05/19 03:09:00.002,n,282,3.96,3.24,4.32,15.5,76.6,1026.62,0,0,0,0,0.026093
2020/05/19 03:10:00.000,n,20,0.72,0.36,0.72,15.5,76.4,1026.62,0,0,0,0,0.029602
2020/05/19 03:11:00.000,n,43,2.16,1.8,2.52,15.5,76.2,1026.62,0,0,0,0,0.031357
2020/05/19 03:12:00.000,n,196,2.88,2.52,3.24,15.5,76.2,1026.62,0,0,0,0,0.028725
2020/05/19 03:13:00.007,n,189,1.08,0.36,1.44,15.5,76.3,1026.62,0,0,0,0,0.028725
2020/05/19 03:14:00.004,n,180,1.44,1.08,1.8,15.5,76.2,1026.62,0,0,0,0,0.024376
2020/05/19 03:15:00.001,n,225,0.72,0.36,0.72,15.5,76.4,1026.52,0,0,0,0,0.020905
2020/05/19 03:16:00.000,n,284,1.08,0.72,1.8,15.5,76.5,1026.52,0,0,0,0,0.027885
2020/05/19 03:17:00.012,n,151,0.72,0.36,0.72,15.5,76.6,1026.52,0,0,0,0,0.026093
2020/05/19 03:18:00.009,n,249,1.44,1.08,1.44,15.4,76.4,1026.52,0,0,0,0,0.026093
2020/05/19 03:19:00.000,n,274,1.44,0.72,1.8,15.4,76.2,1026.52,0,0,0,0,0.025253
2020/05/19 03:20:00.002,n,182,1.44,1.08,1.8,15.4,76.2,1026.52,0,0,0,0,0.024376
2020/05/19 03:21:00.000,n,240,1.08,0.72,1.44,15.4,76.3,1026.52,0,0,0,0,0.026093
2020/05/19 03:22:00.000,n,158,2.16,1.08,3.24,15.3,76.3,1026.52,0,0,0,0,0.021744
2020/05/19 03:23:00.000,n,338,1.8,1.08,3.24,15.3,76.2,1026.52,0,0,0,0,0.026093
2020/05/19 03:24:00.009,n,263,1.08,0.72,2.16,15.3,76.3,1026.42,0,0,0,0,0.026093
2020/05/19 03:25:00.006,n,145,5.04,4.32,5.76,15.3,76.5,1026.42,0,0,0,0,0.022659
2020/05/19 03:26:00.004,n,183,3.96,2.88,5.04,15.3,76.3,1026.42,0,0,0,0,0.026093
2020/05/19 03:27:00.001,n,127,2.16,1.44,2.52,15.3,76.3,1026.42,0,0,0,0,0.027008
2020/05/19 03:28:00.000,n,177,1.8,1.44,2.88,15.3,76.3,1026.42,0,0,0,0,0.026093
2020/05/19 03:29:00.000,n,188,1.44,0.72,1.8,15.3,76.4,1026.42,0,0,0,0,0.024376
2020/05/19 03:30:00.000,n,188,2.16,1.8,2.16,15.3,76.5,1026.42,0,0,0,0,0.023499
2020/05/19 03:31:00.007,n,150,5.04,4.68,5.4,15.3,76.4,1026.42,0,0,0,0,0.022659
2020/05/19 03:32:00.005,n,246,2.16,0.36,2.88,15.3,76.4,1026.42,0,0,0,0,0.025253
2020/05/19 03:33:00.001,n,121,1.44,0.72,2.16,15.3,76.4,1026.42,0,0,0,0,0.020905
2020/05/19 03:34:00.000,n,213,2.88,2.52,3.24,15.3,76.6,1026.42,0,0,0,0,0.020905
2020/05/19 03:35:00.012,n,221,2.16,2.16,2.52,15.2,76.6,1026.42,0,0,0,0,0.029602
2020/05/19 03:36:00.004,n,126,2.16,1.44,2.52,15.2,76.7,1026.42,0,0,0,0,0.036545
2020/05/19 03:37:00.002,n,145,2.16,0.72,2.88,15.2,76.8,1026.42,0,0,0,0,0.031357
2020/05/19 03:38:00.000,n,95,0.72,0,1.08,15.2,76.8,1026.42,0,0,0,0,0.029602
2020/05/19 03:39:00.000,n,7,0.36,0,0.72,15.2,76.9,1026.42,0,0,0,0,0.037422
2020/05/19 03:40:00.000,n,194,1.8,1.08,1.8,15.2,77,1026.32,0,0,0,0,0.030479
2020/05/19 03:41:00.005,n,97,0.72,0,1.44,15.2,77,1026.32,0,0,0,0,0.033073
2020/05/19 03:42:00.002,n,241,3.6,2.88,3.96,15.2,77.1,1026.42,0,0,0,0,0.030479
2020/05/19 03:43:00.000,n,19,1.08,0.72,1.44,15.1,77.3,1026.42,0,0,0,0,0.028725
2020/05/19 03:44:00.012,n,152,0.72,0.36,0.72,15.1,77.1,1026.32,0,0,0,0,0.033951
2020/05/19 03:45:00.008,n,247,2.16,1.44,2.88,15.1,77.1,1026.42,0,0,0,0,0.032196
2020/05/19 03:46:00.000,n,201,0.72,0.36,0.72,15.1,77.1,1026.32,0,0,0,0,0.031357
2020/05/19 03:47:00.003,n,144,1.08,0.72,1.44,15.1,77.1,1026.32,0,0,0,0,0.032196
2020/05/19 03:48:00.000,n,244,0.72,0.36,1.08,15.1,78,1026.32,0,0,0,0,0.028725
2020/05/19 03:49:00.000,n,237,1.8,0.36,2.52,15.1,78.1,1026.32,0,0,0,0,0.031357
2020/05/19 03:50:00.000,n,236,2.16,1.8,2.52,15.1,77.7,1026.32,0,0,0,0,0.028725
2020/05/19 03:51:00.007,n,193,0.36,0,0.36,15.1,77.7,1026.32,0,0,0,0,0.029602
2020/05/19 03:52:00.005,n,203,2.52,2.16,2.88,15.1,77.7,1026.32,0,0,0,0,0.028725
2020/05/19 03:53:00.001,n,287,2.88,2.16,3.6,15.1,78,1026.32,0,0,0,0,0.032196
2020/05/19 03:54:00.015,n,262,2.52,2.16,2.88,15.1,78,1026.32,0,0,0,0,0.033073
2020/05/19 03:55:00.000,n,217,1.8,1.44,2.52,15,77.8,1026.32,0,0,0,0,0.029602
2020/05/19 03:56:00.000,n,206,1.08,0.72,1.44,15,77.9,1026.32,0,0,0,0,0.027847
2020/05/19 03:57:00.000,n,52,1.44,0.72,2.16,15,77.8,1026.32,0,0,0,0,0.031357
2020/05/19 03:58:00.002,n,210,0.72,0.36,1.44,14.9,77.8,1026.32,0,0,0,0,0.02697
2020/05/19 03:59:00.001,n,171,1.44,0.72,2.16,14.9,77.9,1026.32,0,0,0,0,0.024376
2020/05/19 04:00:00.000,n,260,1.08,0.36,1.8,14.9,78.3,1026.32,0,0,0,0,0.030479
2020/05/19 04:01:00.011,n,275,2.52,1.8,2.88,14.9,78.4,1026.32,0,0,0,0,0.031357
2020/05/19 04:02:00.008,n,287,2.52,1.44,3.6,14.9,78.4,1026.32,0,0,0,0,0.027847
2020/05/19 04:03:00.004,n,255,2.88,2.52,3.6,14.9,78.4,1026.32,0,0,0,0,0.026131
2020/05/19 04:04:00.002,n,295,2.16,1.8,2.88,14.9,78.4,1026.32,0,0,0,0,0.025253
2020/05/19 04:05:00.000,n,278,3.6,3.24,3.96,14.8,78.6,1026.32,0,0,0,0,0.02697
2020/05/19 04:06:00.000,n,250,3.6,2.88,3.96,14.8,78.5,1026.32,0,0,0,0,0.026131
2020/05/19 04:07:00.000,n,244,2.88,2.52,3.6,14.8,78.5,1026.32,0,0,0,0,0.027847
2020/05/19 04:08:00.006,n,273,2.52,2.16,3.24,14.8,78.6,1026.32,0,0,0,0,0.031357
2020/05/19 04:09:00.004,n,262,2.88,1.8,3.6,14.8,79,1026.32,0,0,0,0,0.02697
2020/05/19 04:10:00.001,n,232,2.16,1.8,2.52,14.8,78.9,1026.32,0,0,0,0,0.024376
2020/05/19 04:11:00.014,n,242,1.44,1.08,2.16,14.8,78.9,1026.32,0,0,0,0,0.024376
2020/05/19 04:12:00.011,n,264,2.88,2.16,3.24,14.8,79.1,1026.32,0,0,0,0,0.029602
2020/05/19 04:13:00.000,n,251,2.16,1.8,2.16,14.8,79.1,1026.32,0,0,0,0,0.021782
2020/05/19 04:14:00.000,n,273,0.36,0,0.72,14.8,79.2,1026.32,0,0,0,0,0.020905
2020/05/19 04:15:00.003,n,212,1.8,1.44,1.8,14.8,79.4,1026.32,0,0,0,0,0.024376
2020/05/19 04:16:00.000,n,248,3.6,2.88,4.68,14.8,79.3,1026.32,0,0,0,0,0.025253
2020/05/19 04:17:00.000,n,238,2.16,1.8,2.88,14.8,79.1,1026.32,0,0,0,0,0.026131
2020/05/19 04:18:00.010,n,263,3.6,3.24,3.6,14.7,79.1,1026.32,0,0,0,0,0.025253
2020/05/19 04:19:00.006,n,226,1.44,0.72,1.8,14.7,79,1026.32,0,0,0,0,0.020905
2020/05/19 04:20:00.003,n,282,3.96,3.24,4.68,14.7,79.3,1026.32,0,0,0,0,0.024376
2020/05/19 04:21:00.001,n,206,1.8,1.44,2.16,14.7,79.1,1026.32,0,0,0,0,0.019989
2020/05/19 04:22:00.000,n,245,2.52,2.16,2.88,14.6,79.1,1026.32,0,0,0,0,0.01915
2020/05/19 04:23:00.000,n,275,1.08,0.72,1.8,14.6,79.1,1026.32,0,0,0,0,0.02697
2020/05/19 04:24:00.000,n,358,0.72,0.36,1.08,14.6,79,1026.32,0,0,0,0,0.038338
2020/05/19 04:25:00.005,n,207,1.8,1.44,2.52,14.6,79.1,1026.32,0,0,0,0,0.029602
2020/05/19 04:26:00.003,n,151,2.16,1.44,2.52,14.6,79.2,1026.32,0,0,0,0,0.033951
2020/05/19 04:27:00.000,n,221,1.44,1.08,1.8,14.6,79.1,1026.32,0,0,0,0,0.029602
2020/05/19 04:28:00.012,n,230,1.8,1.44,1.8,14.6,79.1,1026.32,0,0,0,0,0.030479
2020/05/19 04:29:00.009,n,251,1.44,0.36,2.16,14.6,79.3,1026.32,0,0,0,0,0.030479
2020/05/19 04:30:00.006,n,251,2.16,1.08,2.88,14.6,79.3,1026.32,0,0,0,0,0.031357
2020/05/19 04:31:00.000,n,257,1.8,1.44,2.16,14.6,79.2,1026.32,0,0,0,0,0.031357
2020/05/19 04:32:00.000,n,204,1.44,1.08,1.8,14.5,79,1026.22,0,0,0,0,0.034828
2020/05/19 04:33:00.000,n,252,1.8,1.8,2.16,14.5,79.2,1026.22,0,0,0,0,0.032196
2020/05/19 04:34:00.000,n,279,2.52,1.8,2.88,14.5,79.1,1026.22,0,0,0,0,0.033951
2020/05/19 04:35:00.009,n,277,3.6,3.6,4.32,14.6,79.3,1026.22,0,0,0,0,0.029602
2020/05/19 04:36:00.005,n,182,0.36,0.36,0.72,14.6,79.1,1026.22,0,0,0,0,0.034828
2020/05/19 04:37:00.002,n,289,2.52,1.44,2.88,14.6,79.1,1026.22,0,0,0,0,0.030479
2020/05/19 04:38:00.000,n,249,1.44,0.72,1.8,14.5,79,1026.22,0,0,0,0,0.028763
2020/05/19 04:39:00.013,n,214,1.44,1.08,1.8,14.5,79.2,1026.22,0,0,0,0,0.028763
2020/05/19 04:40:00.000,n,312,1.8,0.36,3.24,14.5,79.3,1026.22,0,0,0,0,0.027847
2020/05/19 04:41:00.000,n,271,1.08,0.72,1.44,14.5,79.1,1026.22,0,0,0,0,0.027847
2020/05/19 04:42:00.004,n,319,0.72,0.36,1.44,14.5,79.1,1026.22,0,0,0,0,0.024376
2020/05/19 04:43:00.001,n,269,2.88,2.52,3.24,14.5,79.2,1026.22,0,0,0,0,0.032196
2020/05/19 04:44:00.000,n,315,0.72,0.36,0.72,14.5,79,1026.22,0,0,0,0,0.029602
2020/05/19 04:45:00.000,n,234,2.52,1.8,2.88,14.5,79,1026.22,0,0,0,0,0.033112
2020/05/19 04:46:00.009,n,250,0.72,0.36,0.72,14.5,78.9,1026.22,0,0,0,0,0.032196
2020/05/19 04:47:00.006,n,348,1.44,1.08,2.52,14.5,78.9,1026.32,0,0,0,0,0.028763
2020/05/19 04:48:00.003,n,158,1.8,1.44,2.16,14.5,78.9,1026.32,0,0,0,0,0.030479
2020/05/19 04:49:00.000,n,205,3.24,2.88,3.24,14.5,78.9,1026.32,0,0,0,0,0.029602
2020/05/19 04:50:00.000,n,134,2.16,0.36,3.6,14.6,78.7,1026.32,0,0,0,0,0.029602
2020/05/19 04:51:00.000,n,113,1.44,0.72,1.8,14.6,78.5,1026.32,0,0,0,0,0.02697
2020/05/19 04:52:00.000,n,193,4.68,3.96,5.4,14.6,78.3,1026.32,0,0,0,0,0.027847
2020/05/19 04:53:00.004,n,222,1.44,0.36,2.16,14.6,78.3,1026.32,0,0,0,0,0.034828
2020/05/19 04:54:00.001,n,90,1.8,1.44,2.52,14.6,78.2,1026.32,0,0,0,0,0.025253